QPF
0.01 0.01 0.02 0.01 0.01 0.02 0.02 0.02 0.03 0.03 0.02 0.02 0.01 0.01 0.01 0.00 0.00 0.00 0.00 0.00 0.01 0.02 0.03 0.03 0.03 0.03 0.02 0.01 0.01 0.01 0.00 0.01 0.01 0.01 0.01 0.02 0.03 0.03 0.02 0.02 0.03 0.03 0.02 0.03
0.02 0.02 0.02 0.02 0.02 0.02 0.01 0.01 0.02 0.02 0.01 0.01 0.01 0.02 0.02 0.01 0.01 0.01 0.00 0.00 0.01 0.01 0.02 0.02 0.02 0.03 0.03 0.02 0.02 0.01 0.01 0.01 0.01 0.01 0.01 0.01 0.02 0.03 0.03 0.02 0.03 0.03 0.03 0.03
0.03 0.02 0.01 0.02 0.01 0.01 0.01 0.01 0.01 0.01 0.01 0.01 0.01 0.01 0.01 0.01 0.01 0.01 0.01 0.01 0.01 0.02 0.02 0.02 0.01 0.01 0.02 0.03 0.03 0.02 0.02 0.02 0.02 0.02 0.02 0.02 0.02 0.03 0.04 0.04 0.03 0.03 0.03 0.03
0.01 0.01 0.02 0.03 0.01 0.01 0.01 0.01 0.00 0.00 0.00 0.00 0.01 0.01 0.01 0.01 0.01 0.01 0.01 0.01 0.01 0.02 0.02 0.01 0.01 0.01 0.01 0.01 0.02 0.03 0.03 0.03 0.03 0.03 0.03 0.02 0.02 0.02 0.02 0.04 0.05 0.05 0.04 0.04
0.01 0.00 0.01 0.01 0.01 0.01 0.01 0.01 0.01 0.01 0.01 0.00 0.00 0.00 0.01 0.01 0.01 0.01 0.01 0.01 0.01 0.01 0.01 0.01 0.01 0.01 0.01 0.01 0.01 0.02 0.02 0.02 0.03 0.04 0.04 0.03 0.03 0.03 0.02 0.02 0.03 0.05 0.07 0.07
0.00 0.00 0.00 0.01 0.00 0.00 0.01 0.01 0.01 0.01 0.01 0.00 0.00 0.00 0.00 0.01 0.01 0.01 0.01 0.02 0.02 0.01 0.01 0.03 0.02 0.01 0.01 0.01 0.01 0.01 0.02 0.02 0.02 0.03 0.04 0.04 0.04 0.04 0.03 0.02 0.03 0.04 0.06 0.07
0.00 0.00 0.00 0.01 0.00 0.00 0.01 0.01 0.01 0.01 0.01 0.00 0.00 0.00 0.01 0.00 0.01 0.01 0.01 0.01 0.02 0.02 0.02 0.03 0.02 0.01 0.01 0.01 0.01 0.01 0.01 0.01 0.01 0.02 0.02 0.03 0.04 0.04 0.04 0.04 0.03 0.04 0.05 0.07
0.01 0.01 0.01 0.01 0.00 0.01 0.01 0.01 0.01 0.00 0.00 0.00 0.00 0.00 0.00 0.00 0.01 0.01 0.01 0.01 0.01 0.02 0.02 0.03 0.02 0.02 0.02 0.01 0.01 0.01 0.01 0.01 0.01 0.02 0.02 0.03 0.03 0.03 0.03 0.03 0.03 0.03 0.03 0.06
0.02 0.03 0.03 0.01 0.01 0.01 0.01 0.01 0.00 0.00 0.00 0.00 0.00 0.00 0.00 0.00 0.00 0.00 0.00 0.01 0.01 0.01 0.02 0.02 0.03 0.02 0.02 0.02 0.02 0.02 0.01 0.02 0.02 0.03 0.03 0.03 0.03 0.02 0.03 0.03 0.03 0.03 0.03 0.04
0.03 0.03 0.02 0.01 0.01 0.00 0.00 0.00 0.00 0.00 0.00 0.00 0.00 0.00 0.00 0.00 0.00 0.00 0.00 0.00 0.01 0.01 0.02 0.02 0.02 0.02 0.03 0.02 0.02 0.02 0.02 0.01 0.02 0.02 0.02 0.02 0.02 0.02 0.02 0.02 0.02 0.02 0.02 0.03
0.02 0.01 0.01 0.00 0.00 0.00 0.00 0.00 0.00 0.00 0.00 0.00 0.00 0.00 0.00 0.00 0.00 0.00 0.00 0.00 0.01 0.01 0.02 0.02 0.02 0.03 0.03 0.02 0.02 0.02 0.02 0.02 0.02 0.02 0.02 0.02 0.02 0.01 0.01 0.01 0.01 0.01 0.01 0.02
0.03 0.01 0.01 0.00 0.00 0.00 0.00 0.00 0.00 0.01 0.00 0.00 0.00 0.00 0.00 0.00 0.00 0.00 0.00 0.00 0.01 0.01 0.02 0.02 0.03 0.03 0.02 0.01 0.02 0.02 0.03 0.02 0.02 0.01 0.01 0.01 0.01 0.01 0.01 0.01 0.01 0.01 0.01 0.01
0.01 0.01 0.01 0.01 0.00 0.00 0.00 0.00 0.01 0.01 0.00 0.00 0.00 0.00 0.00 0.00 0.00 0.00 0.00 0.00 0.01 0.01 0.02 0.03 0.03 0.02 0.01 0.01 0.01 0.02 0.02 0.02 0.02 0.01 0.01 0.00 0.01 0.01 0.01 0.01 0.01 0.02 0.02 0.02
0.00 0.01 0.01 0.01 0.00 0.00 0.01 0.01 0.00 0.00 0.00 0.00 0.00 0.00 0.00 0.00 0.00 0.00 0.00 0.00 0.01 0.01 0.02 0.03 0.02 0.01 0.01 0.01 0.01 0.01 0.01 0.01 0.01 0.01 0.00 0.00 0.00 0.00 0.01 0.01 0.01 0.02 0.03 0.03
0.01 0.01 0.01 0.00 0.00 0.00 0.01 0.01 0.01 0.01 0.00 0.00 0.00 0.00 0.00 0.00 0.00 0.00 0.00 0.00 0.01 0.02 0.02 0.02 0.01 0.00 0.00 0.00 0.00 0.01 0.01 0.01 0.00 0.00 0.00 0.00 0.00 0.00 0.00 0.00 0.01 0.01 0.01 0.02
0.00 0.00 0.00 0.00 0.00 0.00 0.00 0.01 0.01 0.01 0.00 0.00 0.00 0.00 0.00 0.00 0.00 0.00 0.00 0.01 0.01 0.01 0.01 0.00 0.00 0.01 0.01 0.01 0.01 0.01 0.01 0.01 0.01 0.01 0.01 0.01 0.01 0.01 0.01 0.01 0.01 0.01 0.01 0.01
0.01 0.00 0.00 0.00 0.00 0.00 0.00 0.01 0.01 0.01 0.00 0.00 0.00 0.00 0.00 0.00 0.00 0.00 0.00 0.00 0.00 0.00 0.00 0.00 0.00 0.00 0.01 0.01 0.01 0.01 0.01 0.01 0.01 0.01 0.01 0.01 0.01 0.01 0.01 0.01 0.01 0.01 0.01 0.01
0.00 0.00 0.00 0.00 0.00 0.01 0.01 0.01 0.00 0.00 0.00 0.00 0.00 0.00 0.00 0.01 0.01 0.00 0.00 0.00 0.00 0.00 0.00 0.00 0.00 0.00 0.00 0.00 0.01 0.01 0.01 0.01 0.01 0.01 0.01 0.01 0.01 0.01 0.01 0.01 0.01 0.01 0.01 0.01
0.00 0.00 0.00 0.00 0.00 0.01 0.01 0.01 0.00 0.00 0.00 0.01 0.01 0.00 0.01 0.01 0.00 0.00 0.00 0.00 0.01 0.01 0.01 0.00 0.00 0.00 0.00 0.01 0.01 0.01 0.01 0.01 0.01 0.01 0.01 0.01 0.01 0.01 0.01 0.01 0.01 0.01 0.01 0.01
0.00 0.00 0.01 0.01 0.01 0.01 0.01 0.00 0.00 0.00 0.00 0.00 0.00 0.00 0.01 0.01 0.01 0.01 0.00 0.00 0.01 0.01 0.01 0.01 0.00 0.00 0.00 0.01 0.01 0.01 0.01 0.01 0.01 0.01 0.01 0.01 0.01 0.01 0.01 0.01 0.02 0.02 0.01 0.01
0.02 0.02 0.02 0.01 0.00 0.00 0.00 0.00 0.00 0.00 0.00 0.00 0.00 0.00 0.01 0.01 0.01 0.01 0.01 0.01 0.01 0.01 0.01 0.01 0.01 0.01 0.01 0.01 0.01 0.02 0.01 0.01 0.01 0.01 0.01 0.01 0.01 0.01 0.01 0.01 0.02 0.02 0.02 0.01
0.02 0.03 0.02 0.00 0.00 0.00 0.00 0.00 0.00 0.00 0.00 0.00 0.00 0.00 0.00 0.00 0.01 0.01 0.01 0.01 0.01 0.01 0.01 0.01 0.01 0.01 0.01 0.01 0.01 0.01 0.01 0.01 0.01 0.00 0.00 0.00 0.00 0.01 0.01 0.01 0.01 0.01 0.02 0.02
0.01 0.00 0.00 0.00 0.00 0.00 0.00 0.00 0.00 0.00 0.00 0.00 0.00 0.00 0.00 0.01 0.01 0.01 0.01 0.01 0.01 0.01 0.01 0.01 0.01 0.01 0.01 0.00 0.00 0.01 0.00 0.00 0.01 0.00 0.00 0.00 0.00 0.00 0.00 0.00 0.01 0.01 0.02 0.03
0.00 0.00 0.00 0.00 0.00 0.00 0.00 0.00 0.00 0.00 0.00 0.00 0.00 0.00 0.00 0.01 0.01 0.01 0.01 0.01 0.01 0.01 0.01 0.01 0.01 0.01 0.01 0.01 0.00 0.00 0.00 0.01 0.01 0.01 0.01 0.01 0.01 0.01 0.00 0.01 0.01 0.01 0.02 0.03
0.00 0.00 0.00 0.00 0.00 0.00 0.00 0.00 0.00 0.00 0.00 0.00 0.00 0.01 0.01 0.01 0.01 0.01 0.01 0.01 0.01 0.01 0.01 0.02 0.02 0.02 0.02 0.02 0.01 0.00 0.00 0.01 0.01 0.01 0.01 0.01 0.01 0.01 0.01 0.01 0.02 0.02 0.02 0.02
0.00 0.00 0.00 0.00 0.00 0.00 0.00 0.01 0.01 0.01 0.01 0.01 0.01 0.01 0.01 0.01 0.01 0.01 0.01 0.01 0.01 0.01 0.01 0.01 0.01 0.01 0.02 0.02 0.01 0.01 0.01 0.01 0.01 0.01 0.01 0.01 0.01 0.01 0.01 0.01 0.02 0.02 0.02 0.03
0.00 0.00 0.01 0.01 0.00 0.00 0.00 0.01 0.01 0.01 0.01 0.01 0.01 0.01 0.01 0.01 0.01 0.01 0.01 0.01 0.01 0.01 0.00 0.01 0.01 0.01 0.01 0.01 0.01 0.01 0.01 0.01 0.01 0.01 0.01 0.01 0.01 0.01 0.01 0.02 0.03 0.03 0.03 0.03
MSLP
1008.77 1009.00 1009.38 1009.86 1010.35 1010.79 1011.09 1011.18 1011.04 1010.67 1010.10 1009.40 1008.66 1007.96 1007.38 1006.96 1006.74 1006.71 1006.85 1007.11 1007.47 1007.87 1008.29 1008.72 1009.16 1009.63 1010.13 1010.68 1011.29 1011.95 1012.64 1013.37 1014.10 1014.82 1015.53 1016.22 1016.89 1017.55 1018.20 1018.85 1019.48 1020.10 1020.69 1021.24
1008.53 1008.60 1008.77 1009.02 1009.29 1009.51 1009.65 1009.65 1009.49 1009.18 1008.74 1008.23 1007.68 1007.17 1006.74 1006.43 1006.26 1006.24 1006.34 1006.55 1006.84 1007.20 1007.61 1008.07 1008.58 1009.15 1009.77 1010.44 1011.16 1011.92 1012.69 1013.47 1014.23 1014.97 1015.69 1016.38 1017.05 1017.71 1018.35 1018.99 1019.62 1020.22 1020.80 1021.32
1008.35 1008.27 1008.25 1008.27 1008.31 1008.32 1008.27 1008.15 1007.94 1007.64 1007.29 1006.89 1006.50 1006.14 1005.85 1005.64 1005.54 1005.53 1005.62 1005.81 1006.09 1006.45 1006.88 1007.40 1008.00 1008.66 1009.40 1010.20 1011.02 1011.87 1012.71 1013.54 1014.33 1015.09 1015.81 1016.51 1017.18 1017.84 1018.49 1019.13 1019.75 1020.34 1020.89 1021.40
1008.20 1007.99 1007.79 1007.60 1007.41 1007.20 1006.97 1006.70 1006.40 1006.09 1005.76 1005.44 1005.15 1004.91 1004.73 1004.62 1004.58 1004.62 1004.75 1004.96 1005.26 1005.65 1006.15 1006.74 1007.43 1008.21 1009.05 1009.95 1010.87 1011.79 1012.69 1013.56 1014.38 1015.15 1015.89 1016.60 1017.28 1017.95 1018.61 1019.25 1019.86 1020.44 1020.97 1021.45
1008.06 1007.72 1007.37 1007.00 1006.60 1006.19 1005.77 1005.35 1004.95 1004.57 1004.23 1003.95 1003.72 1003.57 1003.47 1003.45 1003.49 1003.61 1003.80 1004.07 1004.43 1004.89 1005.46 1006.14 1006.93 1007.80 1008.74 1009.72 1010.71 1011.69 1012.63 1013.53 1014.37 1015.16 1015.91 1016.63 1017.33 1018.02 1018.69 1019.34 1019.95 1020.52 1021.03 1021.48
1007.90 1007.46 1006.97 1006.45 1005.88 1005.30 1004.72 1004.16 1003.64 1003.19 1002.82 1002.54 1002.35 1002.25 1002.23 1002.29 1002.42 1002.62 1002.89 1003.24 1003.69 1004.23 1004.89 1005.65 1006.52 1007.46 1008.47 1009.51 1010.54 1011.56 1012.53 1013.44 1014.30 1015.12 1015.88 1016.63 1017.35 1018.05 1018.74 1019.39 1020.00 1020.56 1021.04 1021.46
1007.72 1007.20 1006.61 1005.97 1005.27 1004.56 1003.86 1003.18 1002.58 1002.06 1001.66 1001.37 1001.19 1001.13 1001.17 1001.30 1001.50 1001.79 1002.14 1002.58 1003.11 1003.73 1004.46 1005.29 1006.21 1007.21 1008.25 1009.32 1010.38 1011.41 1012.39 1013.32 1014.19 1015.02 1015.81 1016.57 1017.32 1018.04 1018.73 1019.39 1020.00 1020.54 1021.00 1021.37
1007.53 1006.95 1006.30 1005.58 1004.82 1004.02 1003.24 1002.50 1001.84 1001.28 1000.85 1000.55 1000.38 1000.35 1000.43 1000.61 1000.87 1001.22 1001.64 1002.15 1002.74 1003.42 1004.19 1005.06 1006.01 1007.02 1008.07 1009.14 1010.20 1011.23 1012.21 1013.15 1014.03 1014.88 1015.69 1016.47 1017.23 1017.97 1018.67 1019.33 1019.92 1020.44 1020.87 1021.21
1007.34 1006.73 1006.05 1005.32 1004.53 1003.72 1002.91 1002.16 1001.48 1000.90 1000.46 1000.16 1000.00 999.98 1000.08 1000.29 1000.59 1000.97 1001.43 1001.96 1002.58 1003.28 1004.06 1004.93 1005.86 1006.86 1007.89 1008.94 1009.98 1010.99 1011.97 1012.91 1013.81 1014.68 1015.51 1016.31 1017.09 1017.83 1018.54 1019.18 1019.76 1020.25 1020.65 1020.97
1007.15 1006.54 1005.88 1005.17 1004.41 1003.63 1002.86 1002.13 1001.48 1000.93 1000.50 1000.21 1000.06 1000.04 1000.14 1000.34 1000.64 1001.02 1001.47 1001.99 1002.59 1003.26 1004.01 1004.83 1005.73 1006.67 1007.66 1008.67 1009.68 1010.68 1011.66 1012.61 1013.53 1014.41 1015.27 1016.09 1016.88 1017.63 1018.33 1018.96 1019.51 1019.98 1020.36 1020.66
1006.93 1006.36 1005.75 1005.11 1004.42 1003.72 1003.03 1002.37 1001.78 1001.27 1000.88 1000.60 1000.45 1000.42 1000.50 1000.68 1000.93 1001.27 1001.67 1002.13 1002.67 1003.28 1003.96 1004.71 1005.53 1006.42 1007.35 1008.32 1009.30 1010.28 1011.26 1012.22 1013.16 1014.07 1014.96 1015.80 1016.61 1017.36 1018.05 1018.67 1019.21 1019.66 1020.03 1020.31
1006.68 1006.17 1005.63 1005.08 1004.50 1003.90 1003.32 1002.76 1002.24 1001.80 1001.45 1001.19 1001.04 1000.98 1001.02 1001.14 1001.33 1001.59 1001.90 1002.28 1002.73 1003.24 1003.83 1004.50 1005.24 1006.05 1006.92 1007.85 1008.81 1009.79 1010.78 1011.76 1012.73 1013.67 1014.58 1015.45 1016.28 1017.04 1017.73 1018.34 1018.87 1019.31 1019.67 1019.96
1006.35 1005.91 1005.47 1005.02 1004.55 1004.08 1003.60 1003.15 1002.72 1002.35 1002.03 1001.79 1001.63 1001.54 1001.52 1001.57 1001.67 1001.83 1002.05 1002.32 1002.66 1003.08 1003.57 1004.15 1004.81 1005.56 1006.38 1007.28 1008.23 1009.21 1010.22 1011.23 1012.23 1013.21 1014.15 1015.05 1015.90 1016.67 1017.37 1017.99 1018.52 1018.96 1019.33 1019.63
1005.95 1005.59 1005.24 1004.88 1004.53 1004.16 1003.80 1003.44 1003.09 1002.78 1002.50 1002.26 1002.08 1001.95 1001.86 1001.83 1001.84 1001.90 1002.01 1002.18 1002.42 1002.74 1003.15 1003.66 1004.26 1004.96 1005.76 1006.64 1007.58 1008.58 1009.61 1010.65 1011.69 1012.70 1013.68 1014.61 1015.47 1016.27 1016.98 1017.61 1018.16 1018.62 1019.01 1019.33
1005.51 1005.22 1004.94 1004.67 1004.40 1004.13 1003.85 1003.57 1003.28 1003.01 1002.75 1002.51 1002.30 1002.12 1001.97 1001.85 1001.77 1001.74 1001.76 1001.84 1002.00 1002.25 1002.59 1003.05 1003.62 1004.29 1005.08 1005.96 1006.92 1007.93 1008.99 1010.06 1011.13 1012.17 1013.18 1014.13 1015.02 1015.83 1016.56 1017.21 1017.78 1018.28 1018.70 1019.06
1005.08 1004.83 1004.61 1004.40 1004.20 1003.99 1003.77 1003.54 1003.30 1003.04 1002.79 1002.53 1002.28 1002.04 1001.83 1001.63 1001.47 1001.36 1001.30 1001.32 1001.42 1001.62 1001.93 1002.37 1002.92 1003.60 1004.39 1005.28 1006.26 1007.29 1008.37 1009.46 1010.55 1011.62 1012.64 1013.61 1014.51 1015.34 1016.10 1016.77 1017.38 1017.91 1018.37 1018.77
1004.74 1004.52 1004.33 1004.15 1003.98 1003.81 1003.62 1003.41 1003.18 1002.93 1002.66 1002.37 1002.08 1001.78 1001.50 1001.23 1001.01 1000.83 1000.71 1000.68 1000.74 1000.92 1001.23 1001.66 1002.22 1002.91 1003.72 1004.64 1005.63 1006.68 1007.77 1008.88 1009.97 1011.04 1012.07 1013.04 1013.95 1014.79 1015.57 1016.27 1016.91 1017.48 1017.99 1018.44
1004.55 1004.34 1004.15 1003.99 1003.83 1003.67 1003.49 1003.28 1003.04 1002.77 1002.47 1002.14 1001.79 1001.43 1001.08 1000.75 1000.46 1000.22 1000.06 999.99 1000.04 1000.21 1000.52 1000.97 1001.55 1002.27 1003.10 1004.03 1005.04 1006.10 1007.20 1008.30 1009.38 1010.44 1011.46 1012.42 1013.33 1014.18 1014.96 1015.69 1016.36 1016.98 1017.54 1018.05
1004.57 1004.35 1004.16 1003.99 1003.83 1003.65 1003.45 1003.23 1002.96 1002.66 1002.31 1001.93 1001.52 1001.10 1000.68 1000.28 999.92 999.63 999.43 999.33 999.37 999.54 999.86 1000.32 1000.93 1001.67 1002.52 1003.47 1004.48 1005.55 1006.63 1007.72 1008.78 1009.82 1010.81 1011.76 1012.65 1013.49 1014.29 1015.04 1015.74 1016.40 1017.01 1017.57
1004.82 1004.58 1004.37 1004.18 1003.99 1003.79 1003.57 1003.31 1003.01 1002.66 1002.27 1001.82 1001.35 1000.86 1000.36 999.89 999.47 999.13 998.88 998.76 998.77 998.94 999.26 999.74 1000.36 1001.11 1001.98 1002.93 1003.95 1005.00 1006.07 1007.13 1008.17 1009.17 1010.14 1011.06 1011.94 1012.78 1013.58 1014.34 1015.07 1015.77 1016.42 1017.02
1005.25 1005.00 1004.76 1004.54 1004.32 1004.09 1003.84 1003.54 1003.20 1002.80 1002.35 1001.85 1001.30 1000.74 1000.17 999.63 999.15 998.75 998.45 998.29 998.28 998.43 998.75 999.23 999.85 1000.61 1001.48 1002.43 1003.44 1004.48 1005.52 1006.55 1007.56 1008.53 1009.47 1010.37 1011.23 1012.06 1012.87 1013.64 1014.40 1015.12 1015.81 1016.46
1005.82 1005.54 1005.28 1005.02 1004.77 1004.51 1004.21 1003.88 1003.50 1003.05 1002.55 1001.99 1001.38 1000.75 1000.12 999.51 998.96 998.50 998.16 997.96 997.92 998.04 998.35 998.81 999.43 1000.18 1001.04 1001.97 1002.96 1003.98 1004.99 1006.00 1006.98 1007.92 1008.83 1009.71 1010.57 1011.39 1012.20 1012.99 1013.77 1014.52 1015.23 1015.91
1006.44 1006.13 1005.84 1005.56 1005.27 1004.97 1004.64 1004.27 1003.85 1003.36 1002.81 1002.20 1001.55 1000.86 1000.18 999.52 998.92 998.41 998.02 997.78 997.70 997.80 998.08 998.52 999.12 999.85 1000.68 1001.59 1002.55 1003.54 1004.53 1005.51 1006.46 1007.38 1008.27 1009.14 1009.98 1010.81 1011.63 1012.43 1013.22 1013.98 1014.72 1015.42
1007.03 1006.70 1006.38 1006.07 1005.75 1005.42 1005.06 1004.66 1004.20 1003.68 1003.10 1002.46 1001.77 1001.05 1000.33 999.64 999.00 998.46 998.04 997.77 997.67 997.74 997.98 998.40 998.96 999.66 1000.45 1001.33 1002.26 1003.21 1004.16 1005.11 1006.03 1006.94 1007.81 1008.67 1009.51 1010.34 1011.16 1011.97 1012.77 1013.55 1014.30 1015.01
1007.55 1007.21 1006.86 1006.52 1006.17 1005.81 1005.42 1004.99 1004.51 1003.98 1003.38 1002.73 1002.03 1001.30 1000.57 999.87 999.23 998.68 998.25 997.96 997.84 997.88 998.10 998.48 999.00 999.65 1000.40 1001.23 1002.11 1003.01 1003.93 1004.83 1005.73 1006.61 1007.47 1008.31 1009.15 1009.98 1010.80 1011.62 1012.42 1013.20 1013.96 1014.67
1007.97 1007.60 1007.24 1006.87 1006.49 1006.11 1005.70 1005.25 1004.76 1004.22 1003.63 1002.99 1002.31 1001.60 1000.90 1000.22 999.60 999.07 998.65 998.36 998.24 998.26 998.45 998.79 999.27 999.87 1000.56 1001.33 1002.14 1002.99 1003.84 1004.70 1005.55 1006.40 1007.24 1008.07 1008.89 1009.72 1010.54 1011.35 1012.15 1012.93 1013.68 1014.38
1008.27 1007.89 1007.50 1007.11 1006.72 1006.31 1005.89 1005.44 1004.96 1004.43 1003.87 1003.26 1002.62 1001.96 1001.30 1000.68 1000.11 999.62 999.23 998.97 998.85 998.87 999.04 999.34 999.76 1000.30 1000.92 1001.61 1002.35 1003.12 1003.91 1004.70 1005.50 1006.30 1007.11 1007.91 1008.72 1009.52 1010.33 1011.14 1011.93 1012.70 1013.43 1014.12
Thickness
5645 5652 5653 5652 5653 5654 5648 5643 5635 5641 5644 5651 5655 5657 5659 5661 5662 5662 5660 5659 5657 5655 5654 5653 5651 5651 5650 5648 5647 5645 5642 5639 5637 5636 5634 5633 5632 5631 5630 5630 5629 5628 5627 5626
5638 5647 5646 5645 5648 5650 5649 5648 5643 5643 5643 5655 5657 5656 5654 5654 5655 5655 5654 5654 5652 5650 5648 5646 5645 5645 5643 5642 5641 5639 5635 5632 5631 5628 5626 5624 5623 5622 5621 5621 5620 5619 5619 5618
5619 5632 5635 5627 5640 5644 5644 5646 5646 5639 5644 5651 5650 5650 5649 5649 5650 5649 5649 5648 5646 5644 5642 5640 5640 5639 5637 5636 5634 5631 5628 5625 5622 5620 5617 5616 5615 5614 5612 5611 5611 5610 5609 5609
5609 5617 5609 5629 5646 5647 5643 5644 5646 5645 5647 5647 5648 5649 5648 5649 5647 5645 5645 5643 5641 5639 5637 5636 5634 5632 5631 5629 5626 5623 5619 5617 5614 5612 5609 5607 5606 5604 5603 5602 5601 5600 5600 5599
5599 5600 5609 5628 5640 5641 5635 5633 5641 5640 5642 5643 5645 5643 5641 5644 5644 5643 5642 5640 5637 5635 5632 5630 5627 5625 5623 5620 5617 5614 5612 5609 5607 5604 5601 5599 5597 5596 5595 5594 5592 5592 5591 5590
5595 5596 5597 5618 5638 5644 5636 5622 5636 5637 5636 5635 5634 5623 5629 5640 5639 5638 5636 5634 5632 5629 5626 5623 5621 5619 5615 5612 5609 5607 5605 5603 5600 5598 5594 5592 5590 5588 5587 5585 5584 5583 5582 5581
5589 5590 5601 5620 5633 5634 5613 5615 5631 5632 5631 5629 5624 5624 5630 5634 5633 5632 5630 5628 5626 5622 5619 5616 5614 5612 5608 5605 5603 5601 5599 5596 5593 5591 5588 5585 5582 5580 5579 5577 5575 5574 5573 5571
5582 5582 5594 5619 5621 5615 5614 5623 5625 5626 5625 5623 5622 5625 5626 5625 5625 5624 5622 5620 5618 5614 5611 5609 5608 5605 5601 5598 5597 5594 5591 5588 5585 5583 5582 5579 5575 5572 5570 5568 5565 5564 5562 5561
5586 5591 5603 5610 5613 5617 5618 5616 5618 5618 5620 5619 5618 5617 5618 5617 5616 5616 5614 5612 5610 5607 5604 5602 5600 5599 5595 5592 5590 5587 5583 5580 5577 5575 5573 5570 5567 5564 5561 5559 5557 5555 5554 5552
5584 5592 5598 5604 5607 5610 5611 5610 5612 5613 5614 5614 5611 5610 5609 5609 5608 5607 5606 5604 5602 5599 5596 5594 5593 5592 5590 5587 5583 5580 5576 5572 5569 5567 5564 5562 5560 5558 5555 5552 5550 5549 5547 5545
5576 5584 5589 5596 5599 5602 5604 5605 5606 5606 5607 5606 5605 5603 5602 5601 5600 5600 5599 5597 5596 5593 5591 5588 5587 5585 5583 5580 5576 5572 5568 5565 5562 5560 5557 5554 5552 5550 5549 5548 5546 5543 5541 5539
5570 5579 5578 5584 5592 5596 5596 5597 5597 5597 5597 5598 5597 5596 5596 5594 5593 5593 5592 5591 5589 5587 5585 5583 5581 5578 5576 5573 5570 5566 5561 5558 5555 5552 5550 5547 5544 5542 5542 5541 5540 5539 5536 5533
5576 5580 5579 5582 5585 5588 5589 5590 5590 5589 5589 5588 5589 5589 5589 5587 5586 5585 5585 5583 5582 5581 5580 5577 5575 5572 5570 5567 5563 5560 5556 5552 5549 5546 5544 5540 5538 5536 5533 5532 5532 5531 5529 5528
5573 5573 5572 5575 5576 5579 5580 5581 5581 5582 5581 5581 5581 5581 5580 5578 5578 5578 5578 5577 5576 5574 5573 5571 5568 5566 5564 5561 5557 5554 5550 5547 5544 5540 5537 5534 5531 5529 5527 5525 5522 5521 5521 5520
5567 5567 5566 5568 5569 5571 5571 5571 5571 5571 5572 5572 5573 5572 5571 5570 5570 5571 5571 5570 5569 5567 5566 5564 5561 5559 5557 5554 5551 5547 5544 5540 5537 5533 5529 5527 5525 5522 5520 5517 5515 5513 5512 5512
5559 5559 5559 5559 5560 5560 5561 5562 5561 5562 5563 5563 5563 5564 5564 5564 5564 5563 5563 5563 5561 5559 5558 5557 5555 5553 5551 5548 5544 5540 5537 5535 5531 5527 5523 5519 5517 5514 5512 5510 5508 5506 5504 5503
5548 5548 5549 5549 5551 5551 5552 5554 5554 5554 5554 5555 5555 5556 5556 5556 5555 5555 5555 5555 5554 5553 5552 5550 5548 5547 5544 5541 5537 5534 5530 5527 5525 5520 5516 5514 5511 5508 5506 5504 5501 5499 5498 5497
5544 5544 5544 5544 5544 5544 5545 5547 5547 5547 5547 5548 5549 5548 5547 5547 5547 5547 5547 5547 5546 5545 5544 5543 5542 5539 5537 5534 5531 5527 5524 5520 5517 5514 5511 5508 5505 5502 5500 5497 5495 5492 5490 5489
5538 5538 5538 5538 5538 5538 5538 5539 5540 5540 5541 5541 5541 5540 5540 5540 5540 5540 5539 5538 5537 5536 5536 5536 5535 5532 5529 5527 5525 5521 5517 5514 5510 5507 5504 5502 5498 5495 5493 5490 5488 5486 5484 5482
5531 5531 5531 5531 5531 5530 5531 5532 5533 5533 5533 5533 5533 5532 5532 5532 5533 5532 5531 5530 5531 5530 5530 5529 5526 5524 5522 5520 5518 5513 5510 5507 5503 5500 5497 5494 5491 5488 5486 5484 5481 5479 5477 5474
5523 5523 5523 5522 5523 5523 5524 5525 5525 5526 5526 5526 5525 5524 5524 5525 5525 5524 5523 5522 5524 5524 5522 5521 5519 5516 5514 5512 5510 5506 5503 5499 5496 5492 5489 5486 5483 5480 5478 5476 5474 5472 5469 5467
5515 5515 5515 5515 5515 5515 5516 5517 5518 5518 5519 5518 5518 5517 5516 5516 5516 5516 5516 5516 5517 5516 5515 5513 5511 5510 5507 5505 5501 5498 5495 5492 5488 5485 5482 5479 5475 5473 5470 5468 5466 5464 5461 5459
5507 5507 5507 5507 5507 5507 5508 5509 5509 5510 5510 5510 5509 5508 5508 5507 5507 5507 5507 5508 5508 5508 5507 5505 5505 5503 5501 5497 5493 5490 5487 5484 5481 5477 5474 5471 5468 5466 5463 5460 5458 5456 5453 5452
5499 5499 5499 5499 5499 5498 5498 5499 5500 5501 5501 5501 5501 5501 5500 5499 5499 5500 5500 5501 5501 5500 5498 5498 5497 5495 5492 5487 5484 5481 5479 5476 5473 5469 5467 5464 5461 5458 5455 5452 5449 5447 5446 5445
5491 5491 5491 5490 5489 5489 5489 5490 5490 5491 5491 5491 5491 5492 5492 5491 5491 5491 5491 5491 5491 5490 5488 5488 5487 5485 5482 5478 5475 5473 5470 5467 5464 5461 5458 5455 5452 5449 5447 5444 5442 5440 5438 5436
5482 5482 5482 5482 5481 5481 5480 5480 5479 5480 5480 5480 5480 5481 5481 5482 5482 5482 5481 5480 5480 5479 5478 5476 5475 5473 5471 5469 5466 5464 5461 5459 5456 5453 5450 5447 5444 5442 5439 5436 5434 5432 5430 5428
5473 5472 5472 5472 5472 5472 5471 5471 5470 5470 5469 5469 5469 5470 5470 5471 5470 5470 5469 5469 5468 5467 5466 5465 5464 5462 5460 5459 5456 5454 5452 5449 5446 5444 5441 5439 5436 5434 5432 5429 5427 5425 5423 5421